When you browse on this site, cookies collect data to enhance your experience and personalize the content and advertising you see.
Visit our Privacy Policy to learn more. By continuing to use the site, you agree to this use of cookies and data.

Hourly Weather Jaunde

Today, 22 September, Tuesday

Time Temperature Precipitation Wind Pressure Humidity
00:00 +22°C° 0.2 mm 1 mps 698 mmHg 98%
01:00 +22°C° 0 mm 1 mps 698 mmHg 98%
02:00 +22°C° 0 mm 1 mps 698 mmHg 97%
03:00 +22°C° 0 mm 1 mps 697 mmHg 97%
04:00 +22°C° 0 mm 1 mps 697 mmHg 96%
05:00 +22°C° 0 mm 1 mps 698 mmHg 96%
06:00 +22°C° 0 mm 1 mps 698 mmHg 95%
07:00 +22°C° 0 mm 1 mps 699 mmHg 95%
08:00 +24°C° 0.1 mm 1 mps 699 mmHg 87%
09:00 +25°C° 0.1 mm 1 mps 700 mmHg 80%
10:00 +27°C° 0.1 mm 1 mps 701 mmHg 72%
11:00 +27°C° 1.7 mm 1 mps 700 mmHg 76%
12:00 +27°C° 1.7 mm 1 mps 699 mmHg 80%
13:00 +27°C° 1.7 mm 1 mps 698 mmHg 84%
14:00 +27°C° 2 mm 1 mps 697 mmHg 86%
15:00 +27°C° 2 mm 1 mps 697 mmHg 88%
16:00 +26°C° 2 mm 1 mps 696 mmHg 90%
17:00 +25°C° 0.5 mm 1 mps 697 mmHg 92%
18:00 +24°C° 0.5 mm 1 mps 697 mmHg 95%
19:00 +21°C° 0.5 mm 2 mps 697 mmHg 97%
20:00 +21°C° 0 mm 2 mps 698 mmHg 97%
21:00 +21°C° 0 mm 2 mps 698 mmHg 98%
22:00 +21°C° 0 mm 2 mps 699 mmHg 98%
23:00 +21°C° 0 mm 2 mps 699 mmHg 98%

Tomorrow, 23 September, Wednesday

Time Temperature Precipitation Wind Pressure Humidity
00:00 +22°C° 0 mm 1 mps 699 mmHg 98%
01:00 +22°C° 0 mm 1 mps 699 mmHg 98%
02:00 +22°C° 0 mm 1 mps 698 mmHg 97%
03:00 +22°C° 0 mm 1 mps 698 mmHg 97%
04:00 +22°C° 0 mm 1 mps 697 mmHg 97%
05:00 +22°C° 0.1 mm 1 mps 698 mmHg 97%
06:00 +22°C° 0.1 mm 1 mps 698 mmHg 97%
07:00 +22°C° 0.1 mm 1 mps 699 mmHg 97%
08:00 +23°C° 0 mm 1 mps 699 mmHg 94%
09:00 +23°C° 0 mm 1 mps 700 mmHg 91%
10:00 +24°C° 0 mm 1 mps 700 mmHg 88%
11:00 +25°C° 0.2 mm 1 mps 699 mmHg 83%
12:00 +27°C° 0.2 mm 1 mps 699 mmHg 78%
13:00 +28°C° 0.2 mm 1 mps 698 mmHg 73%
14:00 +27°C° 2.3 mm 1 mps 698 mmHg 81%
15:00 +25°C° 2.3 mm 1 mps 697 mmHg 88%
16:00 +24°C° 2.3 mm 1 mps 697 mmHg 96%
17:00 +23°C° 1.4 mm 1 mps 697 mmHg 96%
18:00 +23°C° 1.4 mm 1 mps 697 mmHg 97%
19:00 +21°C° 1.4 mm 2 mps 698 mmHg 98%
20:00 +21°C° 0.2 mm 2 mps 698 mmHg 98%
21:00 +21°C° 0.2 mm 2 mps 699 mmHg 98%
22:00 +21°C° 0.2 mm 2 mps 699 mmHg 98%
23:00 +20°C° 0 mm 2 mps 699 mmHg 98%

Day after tomorrow, 24 September, Thursday

Time Temperature Precipitation Wind Pressure Humidity
00:00 +20°C° 0 mm 2 mps 698 mmHg 98%
01:00 +21°C° 0 mm 1 mps 698 mmHg 98%
02:00 +20°C° 0 mm 2 mps 698 mmHg 98%
03:00 +20°C° 0 mm 2 mps 697 mmHg 98%
04:00 +20°C° 0 mm 2 mps 697 mmHg 98%
05:00 +21°C° 0 mm 1 mps 698 mmHg 97%
06:00 +22°C° 0 mm 1 mps 698 mmHg 97%
07:00 +22°C° 0 mm 1 mps 699 mmHg 97%
08:00 +22°C° 0 mm 1 mps 699 mmHg 96%
09:00 +22°C° 0 mm 1 mps 700 mmHg 94%
10:00 +23°C° 0 mm 1 mps 700 mmHg 93%
11:00 +23°C° 0.1 mm 1 mps 699 mmHg 92%
12:00 +22°C° 0.1 mm 0 mps 699 mmHg 91%
13:00 +22°C° 0.1 mm 0 mps 698 mmHg 90%
14:00 +24°C° 1.6 mm 1 mps 698 mmHg 91%
15:00 +25°C° 1.6 mm 1 mps 697 mmHg 92%
16:00 +25°C° 1.6 mm 1 mps 697 mmHg 93%
17:00 +24°C° 1.6 mm 2 mps 697 mmHg 94%
18:00 +23°C° 1.6 mm 2 mps 697 mmHg 96%
19:00 +21°C° 1.6 mm 2 mps 698 mmHg 97%
20:00 +21°C° 0.9 mm 2 mps 698 mmHg 97%
21:00 +21°C° 0.9 mm 2 mps 699 mmHg 98%
22:00 +22°C° 0.9 mm 1 mps 699 mmHg 98%
23:00 +21°C° 0.5 mm 1 mps 699 mmHg 98%

25 September, Friday

Time Temperature Precipitation Wind Pressure Humidity
00:00 +21°C° 0.5 mm 1 mps 698 mmHg 99%
01:00 +21°C° 0.5 mm 1 mps 698 mmHg 99%
02:00 +21°C° 0 mm 1 mps 698 mmHg 99%
03:00 +21°C° 0 mm 1 mps 698 mmHg 99%
04:00 +21°C° 0 mm 1 mps 697 mmHg 99%
05:00 +21°C° 0 mm 1 mps 698 mmHg 98%
06:00 +21°C° 0 mm 1 mps 698 mmHg 98%
07:00 +20°C° 0 mm 0 mps 699 mmHg 98%
08:00 +21°C° 0 mm 0 mps 699 mmHg 93%
09:00 +24°C° 0 mm 1 mps 700 mmHg 88%
10:00 +25°C° 0 mm 1 mps 700 mmHg 84%
11:00 +25°C° 1.1 mm 1 mps 699 mmHg 85%
12:00 +25°C° 1.1 mm 1 mps 699 mmHg 87%
13:00 +26°C° 1.1 mm 1 mps 698 mmHg 88%
14:00 +25°C° 1.8 mm 1 mps 697 mmHg 90%
15:00 +25°C° 1.8 mm 1 mps 697 mmHg 93%
16:00 +23°C° 1.8 mm 0 mps 697 mmHg 95%
17:00 +24°C° 1.5 mm 1 mps 697 mmHg 96%
18:00 +23°C° 1.5 mm 1 mps 697 mmHg 97%
19:00 +22°C° 1.5 mm 1 mps 698 mmHg 98%
20:00 +22°C° 1.4 mm 1 mps 698 mmHg 98%
21:00 +22°C° 1.4 mm 1 mps 698 mmHg 98%
22:00 +22°C° 1.4 mm 1 mps 698 mmHg 98%
23:00 +22°C° 1.1 mm 1 mps 698 mmHg 99%

26 September, Saturday

Time Temperature Precipitation Wind Pressure Humidity
00:00 +22°C° 1.1 mm 1 mps 698 mmHg 99%
01:00 +22°C° 1.1 mm 1 mps 698 mmHg 99%
02:00 +21°C° 1.3 mm 1 mps 697 mmHg 99%
03:00 +21°C° 1.3 mm 1 mps 697 mmHg 99%
04:00 +21°C° 1.3 mm 1 mps 697 mmHg 99%
05:00 +21°C° 0.9 mm 1 mps 697 mmHg 99%
06:00 +21°C° 0.9 mm 1 mps 698 mmHg 99%
07:00 +21°C° 0.9 mm 1 mps 698 mmHg 99%
08:00 +22°C° 0.8 mm 1 mps 698 mmHg 99%
09:00 +22°C° 0.8 mm 1 mps 699 mmHg 98%
10:00 +22°C° 0.8 mm 1 mps 699 mmHg 98%
11:00 +22°C° 1.4 mm 1 mps 698 mmHg 98%
12:00 +22°C° 1.4 mm 1 mps 698 mmHg 98%
13:00 +22°C° 1.4 mm 1 mps 697 mmHg 98%
14:00 +22°C° 1.2 mm 1 mps 697 mmHg 98%
15:00 +21°C° 1.2 mm 2 mps 696 mmHg 98%
16:00 +20°C° 1.2 mm 2 mps 696 mmHg 98%
17:00 +20°C° 0.2 mm 2 mps 696 mmHg 98%
18:00 +20°C° 0.2 mm 2 mps 696 mmHg 97%
19:00 +20°C° 0.2 mm 2 mps 697 mmHg 97%
20:00 +20°C° 0 mm 2 mps 697 mmHg 97%
21:00 +21°C° 0 mm 1 mps 697 mmHg 98%
22:00 +21°C° 0 mm 1 mps 698 mmHg 98%
23:00 +21°C° 0 mm 1 mps 698 mmHg 98%

27 September, Sunday

Time Temperature Precipitation Wind Pressure Humidity
00:00 +21°C° 0 mm 1 mps 697 mmHg 98%
01:00 +21°C° 0 mm 1 mps 697 mmHg 98%
02:00 +21°C° 0 mm 1 mps 697 mmHg 98%
03:00 +21°C° 0 mm 1 mps 697 mmHg 98%
04:00 +21°C° 0 mm 1 mps 697 mmHg 97%
05:00 +21°C° 0 mm 1 mps 697 mmHg 97%
06:00 +21°C° 0 mm 1 mps 697 mmHg 97%
07:00 +21°C° 0 mm 1 mps 697 mmHg 97%
08:00 +22°C° 0 mm 1 mps 698 mmHg 93%
09:00 +23°C° 0 mm 1 mps 698 mmHg 90%
10:00 +24°C° 0 mm 2 mps 699 mmHg 86%
11:00 +25°C° 0 mm 2 mps 698 mmHg 81%
12:00 +26°C° 0 mm 2 mps 697 mmHg 75%
13:00 +27°C° 0 mm 2 mps 697 mmHg 69%
14:00 +27°C° 1 mm 2 mps 696 mmHg 76%
15:00 +26°C° 1 mm 2 mps 695 mmHg 83%
16:00 +26°C° 1 mm 1 mps 695 mmHg 90%
17:00 +25°C° 0.6 mm 1 mps 695 mmHg 92%
18:00 +23°C° 0.6 mm 1 mps 695 mmHg 95%
19:00 +22°C° 0.6 mm 1 mps 696 mmHg 98%
20:00 +22°C° 0 mm 1 mps 696 mmHg 98%
21:00 +22°C° 0 mm 1 mps 697 mmHg 98%
22:00 +21°C° 0 mm 1 mps 698 mmHg 98%
23:00 +21°C° 0 mm 1 mps 698 mmHg 98%
Show more